Date,TemperatureHighF,TemperatureAvgF,TemperatureLowF,DewpointHighF,DewpointAvgF,DewpointLowF,HumidityHigh,HumidityAvg,HumidityLow,PressureMaxIn,PressureMinIn,WindSpeedMaxMPH,WindSpeedAvgMPH,GustSpeedMaxMPH,PrecipitationSumIn
2013-9-1,88,82,77,80,74,70,93,77,58,29.89,29.82,13,1,13,0.04
2013-9-2,89,83,77,80,74,70,92,75,59,29.92,29.84,13,1,13,0.02
2013-9-3,89,83,77,79,73,70,90,74,58,29.94,29.84,12,1,12,0.00
2013-9-4,93,81,74,80,74,68,93,80,52,30.00,29.88,13,1,13,0.89
2013-9-5,90,82,74,80,75,72,95,81,62,30.00,29.91,13,1,13,0.00
2013-9-6,91,81,75,80,74,67,89,79,65,29.97,29.86,14,2,14,0.00
2013-9-7,89,79,72,77,72,68,92,79,57,29.94,29.83,16,2,16,0.00
2013-9-8,90,82,75,76,71,67,91,72,47,29.88,29.78,10,1,13,0.00
2013-9-9,93,83,75,76,70,65,89,68,40,29.94,29.85,14,2,14,0.00
2013-9-10,92,82,75,76,70,63,90,68,42,30.00,29.91,18,4,18,0.00
2013-9-11,92,83,75,77,70,63,91,67,39,29.99,29.89,18,3,20,0.00
2013-9-12,86,80,75,78,73,69,90,79,66,29.94,29.80,11,1,11,0.18
2013-9-13,88,80,74,80,73,70,94,80,60,29.82,29.73,13,1,13,0.00
2013-9-14,90,83,76,79,74,71,90,75,60,29.90,29.75,12,1,12,0.00
2013-9-15,93,81,75,79,72,66,90,75,47,30.00,29.87,24,2,24,0.00
2013-9-16,93,80,74,78,72,68,93,79,46,29.98,29.88,12,2,12,0.00
2013-9-17,92,80,74,78,72,68,95,81,48,29.97,29.84,18,2,18,0.00
2013-9-18,89,80,75,78,73,70,94,81,58,29.95,29.87,18,3,18,0.00
2013-9-19,90,79,74,78,73,70,95,82,55,29.96,29.87,14,2,14,0.00
2013-9-20,88,79,72,76,72,67,96,79,55,29.94,29.80,12,1,13,0.00
2013-9-21,89,80,72,74,69,67,88,72,53,29.85,29.69,12,1,12,0.00
2013-9-22,87,81,75,81,75,72,94,84,73,29.76,29.66,13,0,13,0.00
2013-9-23,82,78,76,80,76,74,98,94,85,29.85,29.73,11,1,14,0.00
2013-9-24,81,77,74,80,77,72,100,98,94,29.85,29.75,13,1,14,0.00
2013-9-25,80,75,70,79,74,70,100,99,95,29.82,29.70,14,1,14,0.00
2013-9-26,85,80,75,81,77,70,98,89,79,29.80,29.69,18,2,18,0.00
2013-9-27,84,76,70,76,70,68,93,82,63,29.88,29.79,13,2,14,0.00
2013-9-28,88,77,71,76,71,68,92,82,56,29.91,29.84,16,3,16,0.00
2013-9-29,89,78,70,75,69,64,93,76,45,29.91,29.81,13,2,13,0.00
2013-9-30,90,78,71,77,70,65,92,77,46,29.91,29.83,10,1,11,0.00